Sault Ste Marie, MI

11:09 AM EST on January 17, 2018 (GMT -0500)
Sault Ste Marie Municipal / Sanderson Field

Weather History for KANJ - November, 2012

Change the Weather History Date:

Tuesday, November 20, 2012

  Actual Average Record
Temperature  
Mean Temperature 42 °F 32 °F  
Max Temperature 47 °F 38 °F 58 °F (1982)
Min Temperature 37 °F 27 °F 0 °F (1895)
Degree Days  
Heating Degree Days 23 33  
Month to date heating degree days 542 578  
Since 1 July heating degree days 1449 1583  
Moisture  
Dew Point 39 °F    
Average Humidity 88    
Maximum Humidity 100    
Minimum Humidity 76    
Precipitation  
Precipitation 0.00 in 0.11 in 1.21 in (1983)
Month to date precipitation 0.71 2.26  
Year to date precipitation 24.96 29.05  
Snow  
Snow 0.00 in 0.60 in 11.60 in (2014)
Month to date snowfall T 8.0  
Since 1 July snowfall 5.9 9.6  
Snow Depth 0.00 in    
Sea Level Pressure  
Sea Level Pressure 30.11 in    
Wind  
Wind Speed 3 mph (ENE)    
Max Wind Speed 8 mph    
Max Gust Speed 10 mph    
Visibility 4 miles    
Events Fog    
T = Trace of Precipitation, MM = Missing Value Source: NWS Daily Summary

Daily Weather History Graph

Daily Weather History Graph

Search for Another Location

Airport or City:

Trip Planner

Search our weather history database for the weather conditions in past years. The results will help you decide how hot, cold, wet, or windy it might be!

Date:

Astronomy

Nov. 20, 2012 Rise Set
Actual Time 7:47 AM EST 4:59 PM EST
Civil Twilight 7:13 AM EST 5:32 PM EST
Nautical Twilight 6:36 AM EST 6:09 PM EST
Astronomical Twilight 6:00 AM EST 6:45 PM EST
Moon 1:08 PM EST (11/20) No Moon Set
Length of Visible Light 10h 18m
Length of Day
9h 12m
Waxing Crescent, 51% of the Moon is Illuminated
Nov 20
Waxing Crescent
Nov 28
Full
Dec 6
Last Quarter
Dec 13
New
Dec 20
First Quarter

Hourly Weather History & Observations

Time (EST) Temp. Windchill Dew Point Humidity Pressure Visibility Wind Dir Wind Speed Gust Speed Precip Events Conditions
12:55 AM 43.0 °F 40.3 °F 39.0 °F 86% 30.13 in 5.0 mi East 4.6 mph - N/A   Overcast
1:55 AM 42.1 °F 39.2 °F 39.0 °F 89% 30.12 in 5.0 mi East 4.6 mph - N/A   Overcast
2:55 AM 42.1 °F 40.2 °F 37.9 °F 85% 30.12 in 5.0 mi East 3.5 mph - N/A   Mostly Cloudy
3:45 AM 39.9 °F 36.7 °F 37.0 °F 89% 30.10 in 2.5 mi East 4.6 mph - N/A   Clear
3:55 AM 39.9 °F 37.8 °F 37.0 °F 89% 30.11 in 2.0 mi East 3.5 mph - N/A   Clear
4:02 AM 39.9 °F 37.8 °F 37.0 °F 89% 30.09 in 1.8 mi East 3.5 mph - N/A   Clear
4:34 AM 39.9 °F 36.7 °F 37.0 °F 89% 30.09 in 2.5 mi ESE 4.6 mph - N/A   Clear
4:42 AM 39.9 °F 36.7 °F 37.9 °F 93% 30.09 in 3.0 mi ESE 4.6 mph - N/A   Clear
4:55 AM 39.9 °F 37.8 °F 37.9 °F 93% 30.10 in 2.5 mi East 3.5 mph - N/A   Clear
5:16 AM 39.9 °F 37.8 °F 37.0 °F 89% 30.08 in 1.5 mi East 3.5 mph - N/A   Clear
5:51 AM 37.9 °F - 36.0 °F 93% 30.10 in 0.5 mi Calm Calm - N/A Fog Fog
6:55 AM 37.9 °F 32.7 °F 36.0 °F 93% 30.11 in 0.2 mi East 6.9 mph - N/A Fog Fog
7:55 AM 37.9 °F 35.5 °F 37.0 °F 97% 30.11 in 0.2 mi ENE 3.5 mph - N/A Fog Fog
8:55 AM 39.0 °F - 37.9 °F 96% 30.11 in 0.2 mi Calm Calm - N/A Fog Fog
9:55 AM 41.0 °F 39.0 °F 39.9 °F 96% 30.10 in 0.8 mi ESE 3.5 mph - N/A   Overcast
10:06 AM 41.0 °F 39.0 °F 39.9 °F 96% 30.09 in 1.2 mi ESE 3.5 mph - N/A   Overcast
10:19 AM 41.0 °F 39.0 °F 39.9 °F 96% 30.09 in 2.0 mi Variable 3.5 mph - N/A   Overcast
10:55 AM 42.1 °F 38.4 °F 39.9 °F 92% 30.11 in 2.5 mi SE 5.8 mph - N/A   Overcast
11:13 AM 42.1 °F 39.2 °F 39.9 °F 92% 30.09 in 3.0 mi SE 4.6 mph - N/A   Overcast
11:24 AM 43.0 °F 41.3 °F 39.9 °F 89% 30.10 in 4.0 mi NE 3.5 mph - N/A   Overcast
11:55 AM 44.1 °F 42.5 °F 39.9 °F 85% 30.09 in 5.0 mi East 3.5 mph - N/A   Overcast
12:25 PM 45.0 °F 43.5 °F 39.9 °F 82% 30.08 in 6.0 mi ENE 3.5 mph - N/A   Haze
12:55 PM 45.0 °F 42.6 °F 39.9 °F 82% 30.09 in 6.0 mi East 4.6 mph - N/A   Haze
1:55 PM 46.0 °F - 39.9 °F 79% 30.10 in 6.0 mi Calm Calm - N/A   Haze
2:55 PM 46.9 °F - 39.9 °F 77% 30.09 in 6.0 mi East 3.5 mph - N/A   Haze
3:55 PM 46.9 °F - 41.0 °F 80% 30.09 in 6.0 mi Calm Calm - N/A   Haze
4:55 PM 46.0 °F - 41.0 °F 83% 30.11 in 5.0 mi Calm Calm - N/A   Haze
5:55 PM 46.0 °F - 41.0 °F 83% 30.11 in 6.0 mi Calm Calm - N/A   Haze
6:55 PM 46.0 °F - 41.0 °F 83% 30.13 in 6.0 mi Calm Calm - N/A   Haze
7:55 PM 45.0 °F 42.6 °F 39.9 °F 82% 30.14 in 5.0 mi NNW 4.6 mph - N/A   Haze
8:39 PM 44.1 °F 41.5 °F 39.9 °F 85% 30.13 in 4.0 mi NW 4.6 mph - N/A   Overcast
8:53 PM 44.6 °F 42.2 °F 41.0 °F 87% 30.13 in 4.0 mi NW 4.6 mph - N/A   Overcast
8:55 PM 44.1 °F 40.8 °F 41.0 °F 89% 30.14 in 4.0 mi NNW 5.8 mph - N/A   Overcast
9:04 PM 44.1 °F 40.8 °F 41.0 °F 89% 30.13 in 4.0 mi NW 5.8 mph - N/A   Overcast
9:48 PM 44.1 °F 40.1 °F 41.0 °F 89% 30.13 in 4.0 mi NW 6.9 mph - N/A   Overcast
9:55 PM 44.1 °F 40.1 °F 41.0 °F 89% 30.15 in 4.0 mi NW 6.9 mph - N/A   Overcast
10:43 PM 43.0 °F 41.3 °F 39.9 °F 89% 30.12 in 4.0 mi NW 3.5 mph - N/A   Overcast
10:55 PM 44.1 °F - 39.9 °F 85% 30.13 in 4.0 mi Calm Calm - N/A   Overcast
11:55 PM 43.0 °F 41.3 °F 39.9 °F 89% 30.13 in 4.0 mi SSW 3.5 mph - N/A   Overcast